Location: Franzen
(48.6167°N, 15.3833°E)
Time: 10:23:13
(UTC+00:00)

USA 281 - Pass Details

Date: 22 April 2021
Orbit: 1078 x 1081 km, 106.0° (Epoch: 14 May)

Event Time Altitude Azimuth Distance (km) Brightness Sun altitude
Exits shadow 23:43:17 67° 222° (SW) 1,161 3.1 -28.0°
Maximum altitude 23:43:42 69° 247° (WSW) 1,149 3.1 -28.0°
Drops below altitude 10° 23:50:16 10° 330° (NNW) 2,930 6.0 -27.7°
Sets 23:52:49 0° 333° (NNW) 3,890 6.8 -27.6°
